TimeEDT,TemperatureF,Dew PointF,Humidity,Sea Level PressureIn,VisibilityMPH,Wind Direction,Wind SpeedMPH,Gust SpeedMPH,PrecipitationIn,Events,Conditions,WindDirDegrees,DateUTC
6:53 AM,71.6,69.8,94,30.13,6.0,South,5.8,-,N/A,,Overcast,190,2013-07-02 10:53:00
7:53 AM,73.4,69.8,88,30.14,6.0,South,8.1,-,N/A,,Overcast,180,2013-07-02 11:53:00
8:53 AM,73.4,69.8,88,30.15,7.0,South,6.9,-,N/A,,Overcast,190,2013-07-02 12:53:00
9:53 AM,73.4,69.8,88,30.15,8.0,South,5.8,-,N/A,,Overcast,180,2013-07-02 13:53:00
11:53 AM,77.0,70.0,79,30.15,9.0,South,5.8,-,N/A,,Mostly Cloudy,190,2013-07-02 15:53:00
12:53 PM,79.0,70.0,74,30.16,10.0,South,8.1,-,N/A,,Overcast,190,2013-07-02 16:53:00
1:53 PM,80.1,71.1,74,30.14,10.0,South,11.5,19.6,N/A,,Overcast,180,2013-07-02 17:53:00
2:53 PM,81.0,71.1,72,30.13,10.0,South,10.4,-,N/A,,Mostly Cloudy,170,2013-07-02 18:53:00
3:00 PM,80.6,71.6,74,30.14,10.0,SSW,10.4,16.1,N/A,,Scattered Clouds,200,2013-07-02 19:00:00
3:07 PM,80.6,69.8,70,30.14,10.0,SSW,11.5,17.3,N/A,,Mostly Cloudy,210,2013-07-02 19:07:00
3:53 PM,82.0,71.1,69,30.12,10.0,South,11.5,-,N/A,,Mostly Cloudy,190,2013-07-02 19:53:00
4:00 PM,82.4,69.8,66,30.13,10.0,SSW,12.7,-,N/A,,Scattered Clouds,200,2013-07-02 20:00:00
4:23 PM,82.4,71.6,70,30.12,10.0,South,6.9,-,N/A,,Partly Cloudy,190,2013-07-02 20:23:00
4:53 PM,80.1,70.0,71,30.11,10.0,SSW,9.2,-,N/A,,Scattered Clouds,200,2013-07-02 20:53:00
5:53 PM,77.0,72.0,84,30.12,4.0,SSE,6.9,-,0.03,Rain,Light Rain,150,2013-07-02 21:53:00
6:53 PM,78.1,72.0,81,30.14,9.0,SSE,4.6,-,0.00,,Mostly Cloudy,160,2013-07-02 22:53:00
7:04 PM,77.0,71.6,83,30.15,9.0,SSE,5.8,-,N/A,,Mostly Cloudy,160,2013-07-02 23:04:00
7:27 PM,77.0,71.6,83,30.16,9.0,South,4.6,-,N/A,,Partly Cloudy,170,2013-07-02 23:27:00
7:53 PM,75.9,71.1,85,30.15,9.0,SSE,6.9,-,N/A,,Clear,160,2013-07-02 23:53:00
8:53 PM,75.0,70.0,84,30.16,9.0,South,8.1,-,N/A,,Clear,170,2013-07-03 00:53:00
9:53 PM,75.0,70.0,84,30.18,7.0,South,8.1,-,0.00,Rain,Light Rain,170,2013-07-03 01:53:00
10:53 PM,75.0,70.0,84,30.18,10.0,SSW,9.2,-,0.00,,Scattered Clouds,200,2013-07-03 02:53:00
11:53 PM,75.0,68.0,79,30.18,10.0,SSW,8.1,-,N/A,,Scattered Clouds,210,2013-07-03 03:53:00